Location: Bakov nad Jizerou
(50.4784°N, 14.9394°E)
Time: 15:31:50
(UTC+00:00)

Cosmos 1953 - Pass Details

Date: 16 June 2021
Orbit: 537 x 557 km, 82.5° (Epoch: 02 August)

Event Time Altitude Azimuth Distance (km) Brightness Sun altitude
Rises 21:05:25 0° 341° (NNW) 2,755 7.9 -11.8°
Reaches altitude 10° 21:07:46 10° 331° (NNW) 1,855 6.6 -12.0°
Maximum altitude 21:11:22 31° 269° (W) 1,000 3.9 -12.3°
Drops below altitude 10° 21:14:57 10° 207° (SSW) 1,840 4.6 -12.5°
Enters shadow 21:15:24 - 205° (SSW) 2,003 4.8 -12.5°
